Time,TemperatureF,DewpointF,PressureIn,WindDirection,WindDirectionDegrees,WindSpeedMPH,WindSpeedGustMPH,Humidity,HourlyPrecipIn,Conditions,Clouds,dailyrainin,SoftwareType,DateUTC
2013-06-18 00:00:00,65.4,58.4,29.87,ENE,75,1.0,7.0,78,0.00,,---,0.00,VWS V14.01,2013-06-18 04:00:00,
2013-06-18 00:01:00,63.7,57.8,29.88,NE,50,5.0,9.0,81,0.00,,---,0.00,VWS V14.01,2013-06-18 04:01:00,
2013-06-18 00:06:00,63.5,57.6,29.88,NNE,25,3.0,8.0,81,0.00,,---,0.00,VWS V14.01,2013-06-18 04:06:00,
2013-06-18 00:10:00,63.4,57.8,29.88,NE,47,3.0,8.0,82,0.00,,---,0.00,VWS V14.01,2013-06-18 04:10:00,
2013-06-18 00:15:00,63.3,57.7,29.90,NW,304,4.0,8.0,82,0.00,,---,0.00,VWS V14.01,2013-06-18 04:15:00,
2013-06-18 00:20:00,63.2,58.0,29.94,WNW,291,5.0,13.0,83,0.00,,---,0.00,VWS V14.01,2013-06-18 04:20:00,
2013-06-18 00:25:00,63.2,58.0,29.94,NNW,336,5.0,14.0,83,0.00,,---,0.00,VWS V14.01,2013-06-18 04:25:00,
2013-06-18 00:30:00,62.7,58.1,29.92,NE,48,6.0,14.0,85,0.06,,---,0.06,VWS V14.01,2013-06-18 04:30:00,
2013-06-18 00:35:00,62.0,58.1,29.92,North,7,0.0,14.0,87,0.08,,---,0.08,VWS V14.01,2013-06-18 04:35:00,
2013-06-18 00:40:00,61.5,57.9,29.91,ESE,111,4.0,14.0,88,0.09,,---,0.09,VWS V14.01,2013-06-18 04:40:00,
2013-06-18 00:45:00,61.2,58.2,29.91,ENE,78,4.0,14.0,90,0.09,,---,0.09,VWS V14.01,2013-06-18 04:45:00,
2013-06-18 00:50:00,60.9,58.3,29.90,ESE,120,2.0,14.0,91,0.09,,---,0.09,VWS V14.01,2013-06-18 04:50:00,
2013-06-18 00:55:00,60.6,58.0,29.90,ESE,113,2.0,14.0,91,0.09,,---,0.09,VWS V14.01,2013-06-18 04:55:00,
2013-06-18 01:00:00,60.5,58.2,29.90,ENE,59,2.0,14.0,92,0.09,,---,0.09,VWS V14.01,2013-06-18 05:00:00,
2013-06-18 01:06:00,60.4,58.1,29.88,East,79,2.0,4.0,92,0.09,,---,0.09,VWS V14.01,2013-06-18 05:06:00,
2013-06-18 01:11:00,60.4,58.1,29.88,ENE,74,2.0,4.0,92,0.09,,---,0.09,VWS V14.01,2013-06-18 05:11:00,
2013-06-18 01:16:00,60.3,58.3,29.88,ENE,65,2.0,4.0,93,0.09,,---,0.09,VWS V14.01,2013-06-18 05:16:00,
2013-06-18 01:21:00,60.2,58.2,29.87,ESE,112,3.0,5.0,93,0.09,,---,0.09,VWS V14.01,2013-06-18 05:21:00,
2013-06-18 01:26:00,60.1,58.1,29.87,ESE,107,3.0,5.0,93,0.09,,---,0.09,VWS V14.01,2013-06-18 05:26:00,
2013-06-18 01:31:00,60.0,58.0,29.86,East,94,2.0,6.0,93,0.09,,---,0.09,VWS V14.01,2013-06-18 05:31:00,
2013-06-18 01:36:00,59.9,57.9,29.86,NE,51,1.0,6.0,93,0.09,,---,0.09,VWS V14.01,2013-06-18 05:36:00,
2013-06-18 01:41:00,59.9,57.9,29.86,ENE,64,2.0,6.0,93,0.09,,---,0.09,VWS V14.01,2013-06-18 05:41:00,
2013-06-18 01:46:00,59.8,57.8,29.86,NNE,13,2.0,6.0,93,0.09,,---,0.09,VWS V14.01,2013-06-18 05:46:00,
2013-06-18 01:51:00,59.6,57.9,29.86,North,11,3.0,6.0,94,0.09,,---,0.09,VWS V14.01,2013-06-18 05:51:00,
2013-06-18 01:56:00,59.5,57.8,29.86,NNE,16,4.0,6.0,94,0.09,,---,0.09,VWS V14.01,2013-06-18 05:56:00,
2013-06-18 02:00:00,60.5,58.2,29.90,ENE,59,2.0,14.0,92,0.09,,---,0.09,VWS V14.01,2013-06-18 06:00:00,
2013-06-18 02:02:00,59.4,57.7,29.86,NE,39,3.0,5.0,94,0.00,,---,0.09,VWS V14.01,2013-06-18 06:02:00,
2013-06-18 02:07:00,59.3,57.9,29.86,NE,47,4.0,7.0,95,0.00,,---,0.09,VWS V14.01,2013-06-18 06:07:00,
2013-06-18 02:12:00,59.2,57.8,29.86,NE,37,4.0,8.0,95,0.00,,---,0.09,VWS V14.01,2013-06-18 06:12:00,
2013-06-18 02:17:00,59.2,57.8,29.86,NE,43,1.0,8.0,95,0.00,,---,0.09,VWS V14.01,2013-06-18 06:17:00,
2013-06-18 02:22:00,59.1,57.7,29.87,NNE,32,5.0,8.0,95,0.00,,---,0.09,VWS V14.01,2013-06-18 06:22:00,
2013-06-18 02:27:00,59.1,57.7,29.87,ENE,74,2.0,8.0,95,0.00,,---,0.09,VWS V14.01,2013-06-18 06:27:00,
2013-06-18 02:32:00,59.0,57.6,29.87,NE,51,5.0,8.0,95,0.00,,---,0.09,VWS V14.01,2013-06-18 06:32:00,
2013-06-18 02:37:00,59.0,57.6,29.87,NE,41,0.0,8.0,95,0.00,,---,0.09,VWS V14.01,2013-06-18 06:37:00,
2013-06-18 02:42:00,58.9,57.5,29.87,NNE,26,1.0,8.0,95,0.00,,---,0.09,VWS V14.01,2013-06-18 06:42:00,
2013-06-18 02:47:00,58.8,57.4,29.87,NNE,26,1.0,8.0,95,0.00,,---,0.09,VWS V14.01,2013-06-18 06:47:00,
2013-06-18 02:52:00,58.8,57.4,29.88,NNE,13,2.0,8.0,95,0.00,,---,0.09,VWS V14.01,2013-06-18 06:52:00,
2013-06-18 02:57:00,58.7,57.3,29.88,North,9,2.0,8.0,95,0.00,,---,0.09,VWS V14.01,2013-06-18 06:57:00,
2013-06-18 03:00:00,59.4,57.7,29.86,NE,34,4.0,6.0,94,0.09,,---,0.09,VWS V14.01,2013-06-18 07:00:00,
2013-06-18 03:02:00,58.6,57.5,29.87,NE,36,4.0,5.0,96,0.00,,---,0.09,VWS V14.01,2013-06-18 07:02:00,
2013-06-18 03:07:00,58.6,57.5,29.87,NE,34,4.0,8.0,96,0.00,,---,0.09,VWS V14.01,2013-06-18 07:07:00,
2013-06-18 03:13:00,58.5,57.4,29.87,NNE,25,7.0,8.0,96,0.00,,---,0.09,VWS V14.01,2013-06-18 07:13:00,
2013-06-18 03:23:00,58.4,57.3,29.88,NNW,334,4.0,8.0,96,0.00,,---,0.09,VWS V14.01,2013-06-18 07:23:00,
2013-06-18 03:29:00,58.3,57.2,29.88,NNE,26,4.0,8.0,96,0.00,,---,0.09,VWS V14.01,2013-06-18 07:29:00,
2013-06-18 03:34:00,58.1,56.7,29.88,NNE,26,3.0,10.0,95,0.00,,---,0.09,VWS V14.01,2013-06-18 07:34:00,
2013-06-18 03:39:00,57.8,56.4,29.88,NNE,25,3.0,10.0,95,0.00,,---,0.09,VWS V14.01,2013-06-18 07:39:00,
2013-06-18 03:44:00,57.5,56.1,29.88,NNE,29,2.0,10.0,95,0.00,,---,0.09,VWS V14.01,2013-06-18 07:44:00,
2013-06-18 03:49:00,57.3,55.9,29.88,NNW,333,5.0,10.0,95,0.00,,---,0.09,VWS V14.01,2013-06-18 07:49:00,
2013-06-18 03:54:00,57.0,55.6,29.88,NE,53,4.0,10.0,95,0.00,,---,0.09,VWS V14.01,2013-06-18 07:54:00,
2013-06-18 03:59:00,56.9,55.5,29.88,NE,46,5.0,10.0,95,0.00,,---,0.09,VWS V14.01,2013-06-18 07:59:00,
2013-06-18 04:00:00,58.7,57.3,29.87,NNE,23,3.0,8.0,95,0.00,,---,0.09,VWS V14.01,2013-06-18 08:00:00,
2013-06-18 04:04:00,56.7,55.3,29.88,NE,35,3.0,7.0,95,0.00,,---,0.09,VWS V14.01,2013-06-18 08:04:00,
2013-06-18 04:10:00,56.6,55.2,29.89,NNE,19,2.0,7.0,95,0.00,,---,0.09,VWS V14.01,2013-06-18 08:10:00,
2013-06-18 04:15:00,56.5,55.1,29.89,NNE,22,3.0,7.0,95,0.00,,---,0.09,VWS V14.01,2013-06-18 08:15:00,
2013-06-18 04:20:00,56.4,55.0,29.89,North,9,3.0,7.0,95,0.00,,---,0.09,VWS V14.01,2013-06-18 08:20:00,
2013-06-18 04:25:00,56.2,54.8,29.89,NNE,12,3.0,7.0,95,0.00,,---,0.09,VWS V14.01,2013-06-18 08:25:00,
2013-06-18 04:30:00,56.1,54.7,29.89,NE,37,3.0,7.0,95,0.00,,---,0.09,VWS V14.01,2013-06-18 08:30:00,
2013-06-18 04:35:00,55.9,54.5,29.89,NE,36,3.0,7.0,95,0.00,,---,0.09,VWS V14.01,2013-06-18 08:35:00,
2013-06-18 04:40:00,55.7,54.3,29.89,NE,47,7.0,7.0,95,0.00,,---,0.09,VWS V14.01,2013-06-18 08:40:00,
2013-06-18 04:45:00,55.6,54.2,29.89,NNE,32,3.0,9.0,95,0.00,,---,0.09,VWS V14.01,2013-06-18 08:45:00,
2013-06-18 04:50:00,55.4,54.0,29.89,NNE,25,2.0,9.0,95,0.00,,---,0.09,VWS V14.01,2013-06-18 08:50:00,
2013-06-18 04:55:00,55.3,53.9,29.89,NE,34,4.0,9.0,95,0.00,,---,0.09,VWS V14.01,2013-06-18 08:55:00,
2013-06-18 05:00:00,55.1,53.7,29.89,NE,50,4.0,9.0,95,0.00,,---,0.09,VWS V14.01,2013-06-18 09:00:00,
2013-06-18 05:06:00,55.0,53.6,29.89,NNE,27,5.0,7.0,95,0.00,,---,0.09,VWS V14.01,2013-06-18 09:06:00,
2013-06-18 05:11:00,54.9,53.5,29.89,NE,48,4.0,8.0,95,0.00,,---,0.09,VWS V14.01,2013-06-18 09:11:00,
2013-06-18 05:16:00,54.7,53.3,29.89,NE,44,5.0,9.0,95,0.00,,---,0.09,VWS V14.01,2013-06-18 09:16:00,
2013-06-18 05:21:00,54.7,53.3,29.90,NNE,32,4.0,11.0,95,0.00,,---,0.09,VWS V14.01,2013-06-18 09:21:00,
2013-06-18 05:26:00,54.6,53.2,29.90,NNE,31,2.0,11.0,95,0.00,,---,0.09,VWS V14.01,2013-06-18 09:26:00,
2013-06-18 05:31:00,54.4,53.0,29.90,NE,43,3.0,11.0,95,0.00,,---,0.09,VWS V14.01,2013-06-18 09:31:00,
2013-06-18 05:36:00,54.3,52.9,29.90,North,356,2.0,11.0,95,0.00,,---,0.09,VWS V14.01,2013-06-18 09:36:00,
2013-06-18 05:41:00,54.2,52.8,29.90,NE,39,1.0,11.0,95,0.00,,---,0.09,VWS V14.01,2013-06-18 09:41:00,
2013-06-18 05:46:00,54.1,52.7,29.91,NNE,26,0.0,11.0,95,0.00,,---,0.09,VWS V14.01,2013-06-18 09:46:00,
2013-06-18 05:51:00,54.0,52.6,29.91,ENE,61,3.0,11.0,95,0.00,,---,0.09,VWS V14.01,2013-06-18 09:51:00,
2013-06-18 05:56:00,53.9,52.5,29.91,NE,39,1.0,11.0,95,0.00,,---,0.09,VWS V14.01,2013-06-18 09:56:00,
2013-06-18 06:00:00,55.1,53.7,29.89,NNE,25,4.0,9.0,95,0.00,,---,0.09,VWS V14.01,2013-06-18 10:00:00,
2013-06-18 06:01:00,53.8,52.4,29.91,NE,41,4.0,4.0,95,0.00,,---,0.09,VWS V14.01,2013-06-18 10:01:00,
2013-06-18 06:06:00,53.8,52.4,29.91,NE,44,5.0,6.0,95,0.00,,---,0.09,VWS V14.01,2013-06-18 10:06:00,
2013-06-18 06:12:00,53.7,52.0,29.91,NNE,29,7.0,8.0,94,0.00,,---,0.09,VWS V14.01,2013-06-18 10:12:00,
2013-06-18 06:17:00,53.6,51.9,29.92,NE,44,4.0,8.0,94,0.00,,---,0.09,VWS V14.01,2013-06-18 10:17:00,
2013-06-18 06:22:00,53.6,51.9,29.92,NE,34,2.0,8.0,94,0.00,,---,0.09,VWS V14.01,2013-06-18 10:22:00,
2013-06-18 06:27:00,53.8,52.1,29.92,NNE,31,4.0,8.0,94,0.00,,---,0.09,VWS V14.01,2013-06-18 10:27:00,
2013-06-18 06:32:00,53.9,52.2,29.92,NNE,27,4.0,8.0,94,0.00,,---,0.09,VWS V14.01,2013-06-18 10:32:00,
2013-06-18 06:37:00,54.1,52.1,29.93,NNE,23,4.0,8.0,93,0.00,,---,0.09,VWS V14.01,2013-06-18 10:37:00,
2013-06-18 06:42:00,54.2,52.2,29.92,NNW,347,4.0,8.0,93,0.00,,---,0.09,VWS V14.01,2013-06-18 10:42:00,
2013-06-18 06:47:00,54.2,51.9,29.93,NNE,25,4.0,9.0,92,0.00,,---,0.09,VWS V14.01,2013-06-18 10:47:00,
2013-06-18 06:52:00,54.2,51.9,29.93,NNE,21,2.0,9.0,92,0.00,,---,0.09,VWS V14.01,2013-06-18 10:52:00,
2013-06-18 06:57:00,54.2,51.9,29.93,NNE,22,3.0,9.0,92,0.00,,---,0.09,VWS V14.01,2013-06-18 10:57:00,
2013-06-18 07:00:00,53.9,52.5,29.91,NE,37,3.0,11.0,95,0.00,,---,0.09,VWS V14.01,2013-06-18 11:00:00,
2013-06-18 07:02:00,54.3,51.7,29.93,NNE,31,4.0,8.0,91,0.00,,---,0.09,VWS V14.01,2013-06-18 11:02:00,
2013-06-18 07:08:00,54.4,51.8,29.93,NNE,29,6.0,8.0,91,0.00,,---,0.09,VWS V14.01,2013-06-18 11:08:00,
2013-06-18 07:13:00,54.7,52.1,29.93,North,8,4.0,8.0,91,0.00,,---,0.09,VWS V14.01,2013-06-18 11:13:00,
2013-06-18 07:18:00,54.7,51.8,29.93,North,352,9.0,10.0,90,0.00,,---,0.09,VWS V14.01,2013-06-18 11:18:00,
2013-06-18 07:23:00,54.8,51.9,29.94,NE,43,5.0,10.0,90,0.00,,---,0.09,VWS V14.01,2013-06-18 11:23:00,
2013-06-18 07:28:00,55.0,51.8,29.94,NNE,20,5.0,10.0,89,0.00,,---,0.09,VWS V14.01,2013-06-18 11:28:00,
2013-06-18 07:33:00,55.1,51.9,29.94,NW,323,6.0,10.0,89,0.00,,---,0.09,VWS V14.01,2013-06-18 11:33:00,
2013-06-18 07:38:00,55.2,52.0,29.94,NE,37,4.0,11.0,89,0.00,,---,0.09,VWS V14.01,2013-06-18 11:38:00,
2013-06-18 07:43:00,55.4,52.2,29.94,North,11,4.0,11.0,89,0.00,,---,0.09,VWS V14.01,2013-06-18 11:43:00,
2013-06-18 07:48:00,55.7,52.2,29.95,ENE,57,6.0,11.0,88,0.00,,---,0.09,VWS V14.01,2013-06-18 11:48:00,
2013-06-18 07:53:00,55.9,52.4,29.95,NE,51,8.0,11.0,88,0.00,,---,0.09,VWS V14.01,2013-06-18 11:53:00,
2013-06-18 07:58:00,56.1,52.0,29.95,NE,37,7.0,11.0,86,0.00,,---,0.09,VWS V14.01,2013-06-18 11:58:00,
2013-06-18 08:00:00,54.3,52.0,29.93,NNE,21,4.0,9.0,92,0.00,,---,0.09,VWS V14.01,2013-06-18 12:00:00,
2013-06-18 08:03:00,56.4,52.3,29.95,NNW,348,10.0,11.0,86,0.00,,---,0.09,VWS V14.01,2013-06-18 12:03:00,
2013-06-18 08:08:00,56.5,52.4,29.95,NE,40,5.0,11.0,86,0.00,,---,0.09,VWS V14.01,2013-06-18 12:08:00,
2013-06-18 08:14:00,56.8,52.3,29.95,North,11,6.0,11.0,85,0.00,,---,0.09,VWS V14.01,2013-06-18 12:14:00,
2013-06-18 08:19:00,57.0,52.2,29.95,NNE,29,4.0,11.0,84,0.00,,---,0.09,VWS V14.01,2013-06-18 12:19:00,
2013-06-18 08:24:00,57.2,52.4,29.95,North,352,4.0,12.0,84,0.00,,---,0.09,VWS V14.01,2013-06-18 12:24:00,
2013-06-18 08:29:00,57.5,52.1,29.95,NNE,23,6.0,13.0,82,0.00,,---,0.09,VWS V14.01,2013-06-18 12:29:00,
2013-06-18 08:34:00,57.9,52.5,29.95,NE,34,8.0,13.0,82,0.00,,---,0.09,VWS V14.01,2013-06-18 12:34:00,
2013-06-18 08:39:00,57.9,52.1,29.95,NE,44,5.0,13.0,81,0.00,,---,0.09,VWS V14.01,2013-06-18 12:39:00,
2013-06-18 08:44:00,58.1,52.3,29.95,NE,47,10.0,13.0,81,0.00,,---,0.09,VWS V14.01,2013-06-18 12:44:00,
2013-06-18 08:49:00,58.4,52.6,29.95,NE,53,6.0,13.0,81,0.00,,---,0.09,VWS V14.01,2013-06-18 12:49:00,
2013-06-18 08:54:00,58.9,52.8,29.95,ENE,58,8.0,13.0,80,0.00,,---,0.09,VWS V14.01,2013-06-18 12:54:00,
2013-06-18 08:59:00,59.1,52.6,29.96,NE,43,8.0,13.0,79,0.00,,---,0.09,VWS V14.01,2013-06-18 12:59:00,
2013-06-18 09:00:00,56.2,52.4,29.95,NNE,20,7.0,11.0,87,0.00,,---,0.09,VWS V14.01,2013-06-18 13:00:00,
2013-06-18 09:04:00,59.5,53.3,29.96,NNE,12,3.0,9.0,80,0.00,,---,0.09,VWS V14.01,2013-06-18 13:04:00,
2013-06-18 09:09:00,59.7,52.5,29.96,NE,40,9.0,13.0,77,0.00,,---,0.09,VWS V14.01,2013-06-18 13:09:00,
2013-06-18 09:15:00,59.9,52.7,29.97,NNE,20,4.0,13.0,77,0.00,,---,0.09,VWS V14.01,2013-06-18 13:15:00,
2013-06-18 09:20:00,60.1,52.5,29.97,NE,49,7.0,13.0,76,0.00,,---,0.09,VWS V14.01,2013-06-18 13:20:00,
2013-06-18 09:25:00,60.1,52.2,29.97,ENE,70,8.0,13.0,75,0.00,,---,0.09,VWS V14.01,2013-06-18 13:25:00,
2013-06-18 09:30:00,60.8,53.2,29.97,NE,49,10.0,13.0,76,0.00,,---,0.09,VWS V14.01,2013-06-18 13:30:00,
2013-06-18 09:35:00,60.9,52.6,29.97,NE,37,6.0,13.0,74,0.00,,---,0.09,VWS V14.01,2013-06-18 13:35:00,
2013-06-18 09:40:00,61.1,53.1,29.98,NE,50,4.0,13.0,75,0.00,,---,0.09,VWS V14.01,2013-06-18 13:40:00,
2013-06-18 09:45:00,61.5,53.2,29.98,NNE,13,6.0,13.0,74,0.00,,---,0.09,VWS V14.01,2013-06-18 13:45:00,
2013-06-18 09:50:00,61.5,53.5,29.98,NNE,29,4.0,13.0,75,0.00,,---,0.09,VWS V14.01,2013-06-18 13:50:00,
2013-06-18 09:55:00,61.4,52.7,29.98,NE,53,5.0,14.0,73,0.00,,---,0.09,VWS V14.01,2013-06-18 13:55:00,
2013-06-18 10:00:00,61.9,53.9,29.97,NNE,32,6.0,14.0,75,0.00,,---,0.09,VWS V14.01,2013-06-18 14:00:00,
2013-06-18 10:05:00,62.3,53.9,29.98,NE,40,8.0,11.0,74,0.00,,---,0.09,VWS V14.01,2013-06-18 14:05:00,
2013-06-18 10:10:00,62.1,54.5,29.98,NE,46,11.0,13.0,76,0.00,,---,0.09,VWS V14.01,2013-06-18 14:10:00,
2013-06-18 10:15:00,62.5,54.5,29.97,NE,54,10.0,13.0,75,0.00,,---,0.09,VWS V14.01,2013-06-18 14:15:00,
2013-06-18 10:20:00,62.6,54.6,29.97,NE,36,4.0,13.0,75,0.00,,---,0.09,VWS V14.01,2013-06-18 14:20:00,
2013-06-18 10:25:00,62.7,53.5,29.97,NE,43,7.0,13.0,72,0.00,,---,0.09,VWS V14.01,2013-06-18 14:25:00,
2013-06-18 10:30:00,62.9,54.1,29.98,NNW,342,5.0,13.0,73,0.00,,---,0.09,VWS V14.01,2013-06-18 14:30:00,
2013-06-18 10:36:00,63.1,53.9,29.97,NE,47,15.0,15.0,72,0.00,,---,0.09,VWS V14.01,2013-06-18 14:36:00,
2013-06-18 10:41:00,62.9,53.8,29.98,NE,49,11.0,15.0,72,0.00,,---,0.09,VWS V14.01,2013-06-18 14:41:00,
2013-06-18 10:46:00,62.9,54.1,29.98,NNE,13,6.0,15.0,73,0.00,,---,0.09,VWS V14.01,2013-06-18 14:46:00,
2013-06-18 10:51:00,63.1,54.7,29.98,NE,37,6.0,15.0,74,0.00,,---,0.09,VWS V14.01,2013-06-18 14:51:00,
2013-06-18 10:56:00,63.4,54.6,29.98,NE,39,8.0,15.0,73,0.00,,---,0.09,VWS V14.01,2013-06-18 14:56:00,
2013-06-18 11:00:00,61.9,53.9,29.97,NNE,32,6.0,14.0,75,0.00,,---,0.09,VWS V14.01,2013-06-18 15:00:00,
2013-06-18 11:01:00,64.0,55.6,29.98,NNE,19,3.0,6.0,74,0.00,,---,0.09,VWS V14.01,2013-06-18 15:01:00,
2013-06-18 11:06:00,64.4,55.2,29.98,NE,46,13.0,14.0,72,0.00,,---,0.09,VWS V14.01,2013-06-18 15:06:00,
2013-06-18 11:11:00,64.3,55.1,29.99,NNE,33,9.0,14.0,72,0.00,,---,0.09,VWS V14.01,2013-06-18 15:11:00,
2013-06-18 11:16:00,64.2,55.0,29.98,NNW,348,9.0,14.0,72,0.00,,---,0.09,VWS V14.01,2013-06-18 15:16:00,
2013-06-18 11:21:00,64.4,55.2,29.98,North,8,6.0,14.0,72,0.00,,---,0.09,VWS V14.01,2013-06-18 15:21:00,
2013-06-18 11:26:00,64.2,54.2,29.98,NE,39,8.0,14.0,70,0.00,,---,0.09,VWS V14.01,2013-06-18 15:26:00,
2013-06-18 11:31:00,64.3,54.3,29.98,NNE,33,7.0,14.0,70,0.00,,---,0.09,VWS V14.01,2013-06-18 15:31:00,
2013-06-18 11:37:00,64.2,53.4,29.98,NE,56,11.0,18.0,68,0.00,,---,0.09,VWS V14.01,2013-06-18 15:37:00,
2013-06-18 11:42:00,64.3,54.7,29.98,NE,41,9.0,18.0,71,0.00,,---,0.09,VWS V14.01,2013-06-18 15:42:00,
2013-06-18 11:47:00,64.3,54.7,29.98,NE,54,8.0,18.0,71,0.00,,---,0.09,VWS V14.01,2013-06-18 15:47:00,
2013-06-18 11:52:00,64.6,55.0,29.98,NE,46,5.0,18.0,71,0.00,,---,0.09,VWS V14.01,2013-06-18 15:52:00,
2013-06-18 11:57:00,65.2,56.3,29.98,NNE,33,7.0,18.0,73,0.00,,---,0.09,VWS V14.01,2013-06-18 15:57:00,
2013-06-18 12:00:00,64.0,55.6,29.98,NNE,15,5.0,15.0,74,0.00,,---,0.09,VWS V14.01,2013-06-18 16:00:00,
2013-06-18 12:02:00,65.0,54.2,29.98,NNE,13,7.0,13.0,68,0.00,,---,0.09,VWS V14.01,2013-06-18 16:02:00,
2013-06-18 12:07:00,65.0,54.6,29.99,NE,46,8.0,13.0,69,0.00,,---,0.09,VWS V14.01,2013-06-18 16:07:00,
2013-06-18 12:12:00,65.0,53.8,29.99,North,1,5.0,15.0,67,0.00,,---,0.09,VWS V14.01,2013-06-18 16:12:00,
2013-06-18 12:17:00,65.4,55.4,29.99,NNE,29,11.0,15.0,70,0.00,,---,0.09,VWS V14.01,2013-06-18 16:17:00,
2013-06-18 12:22:00,65.4,54.2,29.98,NNW,333,8.0,15.0,67,0.00,,---,0.09,VWS V14.01,2013-06-18 16:22:00,
2013-06-18 12:27:00,65.4,54.2,29.98,North,5,7.0,15.0,67,0.00,,---,0.09,VWS V14.01,2013-06-18 16:27:00,
2013-06-18 12:32:00,65.4,53.8,29.98,NE,37,6.0,15.0,66,0.00,,---,0.09,VWS V14.01,2013-06-18 16:32:00,
2013-06-18 12:37:00,66.0,53.5,29.98,NE,50,6.0,15.0,64,0.00,,---,0.09,VWS V14.01,2013-06-18 16:37:00,
2013-06-18 12:42:00,66.0,53.9,29.98,NNE,19,5.0,15.0,65,0.00,,---,0.09,VWS V14.01,2013-06-18 16:42:00,
2013-06-18 12:47:00,65.9,53.8,29.98,NNE,29,11.0,16.0,65,0.00,,---,0.09,VWS V14.01,2013-06-18 16:47:00,
2013-06-18 12:53:00,66.1,54.0,29.98,NNE,20,8.0,16.0,65,0.00,,---,0.09,VWS V14.01,2013-06-18 16:53:00,
2013-06-18 12:58:00,66.2,53.7,29.98,NE,49,10.0,16.0,64,0.00,,---,0.09,VWS V14.01,2013-06-18 16:58:00,
2013-06-18 13:00:00,65.2,54.4,29.98,NNW,329,10.0,18.0,68,0.00,,---,0.09,VWS V14.01,2013-06-18 17:00:00,
2013-06-18 13:03:00,66.3,55.0,29.98,NNE,16,12.0,13.0,67,0.00,,---,0.09,VWS V14.01,2013-06-18 17:03:00,
2013-06-18 13:08:00,66.4,53.9,29.98,NE,40,14.0,16.0,64,0.00,,---,0.09,VWS V14.01,2013-06-18 17:08:00,
2013-06-18 13:13:00,66.3,53.3,29.98,NNE,32,8.0,16.0,63,0.00,,---,0.09,VWS V14.01,2013-06-18 17:13:00,
2013-06-18 13:18:00,66.7,53.7,29.98,NE,40,14.0,18.0,63,0.00,,---,0.09,VWS V14.01,2013-06-18 17:18:00,
2013-06-18 13:23:00,66.8,55.1,29.98,NNE,27,4.0,18.0,66,0.00,,---,0.09,VWS V14.01,2013-06-18 17:23:00,
2013-06-18 13:28:00,67.2,53.8,29.98,NE,45,15.0,18.0,62,0.00,,---,0.09,VWS V14.01,2013-06-18 17:28:00,
2013-06-18 13:33:00,66.7,53.3,29.98,NNE,13,3.0,18.0,62,0.00,,---,0.09,VWS V14.01,2013-06-18 17:33:00,
2013-06-18 13:38:00,67.1,54.1,29.98,NNE,22,7.0,18.0,63,0.00,,---,0.09,VWS V14.01,2013-06-18 17:38:00,
2013-06-18 13:43:00,67.0,53.1,29.98,NE,54,12.0,18.0,61,0.00,,---,0.09,VWS V14.01,2013-06-18 17:43:00,
2013-06-18 13:48:00,67.1,54.1,29.98,NNE,22,14.0,18.0,63,0.00,,---,0.09,VWS V14.01,2013-06-18 17:48:00,
2013-06-18 13:54:00,67.1,53.2,29.98,NE,53,7.0,18.0,61,0.00,,---,0.09,VWS V14.01,2013-06-18 17:54:00,
2013-06-18 13:59:00,67.1,52.3,29.98,NE,53,9.0,18.0,59,0.00,,---,0.09,VWS V14.01,2013-06-18 17:59:00,
2013-06-18 14:00:00,66.1,54.0,29.98,NE,52,6.0,16.0,65,0.00,,---,0.09,VWS V14.01,2013-06-18 18:00:00,
2013-06-18 14:04:00,67.2,51.9,29.98,NNW,338,6.0,14.0,58,0.00,,---,0.09,VWS V14.01,2013-06-18 18:04:00,
2013-06-18 14:09:00,67.1,50.9,29.99,NE,38,10.0,20.0,56,0.00,,---,0.09,VWS V14.01,2013-06-18 18:09:00,
2013-06-18 14:14:00,67.3,51.6,29.98,North,352,8.0,20.0,57,0.00,,---,0.09,VWS V14.01,2013-06-18 18:14:00,
2013-06-18 14:19:00,67.5,51.8,29.99,North,349,10.0,20.0,57,0.00,,---,0.09,VWS V14.01,2013-06-18 18:19:00,
2013-06-18 14:24:00,67.6,51.8,29.98,NE,46,11.0,20.0,57,0.00,,---,0.09,VWS V14.01,2013-06-18 18:24:00,
2013-06-18 14:29:00,67.9,51.6,29.98,North,11,11.0,20.0,56,0.00,,---,0.09,VWS V14.01,2013-06-18 18:29:00,
2013-06-18 14:34:00,67.9,50.7,29.98,NE,50,7.0,20.0,54,0.00,,---,0.09,VWS V14.01,2013-06-18 18:34:00,
2013-06-18 14:39:00,67.9,52.6,29.98,North,9,7.0,20.0,58,0.00,,---,0.09,VWS V14.01,2013-06-18 18:39:00,
2013-06-18 14:44:00,68.0,50.2,29.98,NE,54,8.0,20.0,53,0.00,,---,0.09,VWS V14.01,2013-06-18 18:44:00,
2013-06-18 14:49:00,68.2,50.4,29.98,NE,47,12.0,20.0,53,0.00,,---,0.09,VWS V14.01,2013-06-18 18:49:00,
2013-06-18 14:54:00,68.1,50.8,29.98,NNE,12,6.0,20.0,54,0.00,,---,0.09,VWS V14.01,2013-06-18 18:54:00,
2013-06-18 14:59:00,68.0,49.7,29.98,NNE,16,4.0,20.0,52,0.00,,---,0.09,VWS V14.01,2013-06-18 18:59:00,
2013-06-18 15:00:00,67.1,53.2,29.98,NE,43,8.0,18.0,61,0.00,,---,0.09,VWS V14.01,2013-06-18 19:00:00,
2013-06-18 15:04:00,68.0,51.7,29.98,NNE,22,8.0,14.0,56,0.00,,---,0.09,VWS V14.01,2013-06-18 19:04:00,
2013-06-18 15:10:00,68.0,50.2,29.98,NNE,32,6.0,15.0,53,0.00,,---,0.09,VWS V14.01,2013-06-18 19:10:00,
2013-06-18 15:15:00,68.1,50.8,29.99,NE,49,5.0,15.0,54,0.00,,---,0.09,VWS V14.01,2013-06-18 19:15:00,
2013-06-18 15:20:00,67.9,49.1,29.98,North,349,8.0,15.0,51,0.00,,---,0.09,VWS V14.01,2013-06-18 19:20:00,
2013-06-18 15:25:00,68.4,50.6,29.99,ENE,64,11.0,15.0,53,0.00,,---,0.09,VWS V14.01,2013-06-18 19:25:00,
2013-06-18 15:30:00,68.2,49.4,29.99,ENE,75,13.0,15.0,51,0.00,,---,0.09,VWS V14.01,2013-06-18 19:30:00,
2013-06-18 15:35:00,68.3,49.5,29.99,NNW,345,4.0,17.0,51,0.00,,---,0.09,VWS V14.01,2013-06-18 19:35:00,
2013-06-18 15:40:00,68.1,47.7,29.99,ENE,58,5.0,17.0,48,0.00,,---,0.09,VWS V14.01,2013-06-18 19:40:00,
2013-06-18 15:45:00,68.3,48.4,29.99,NE,54,10.0,17.0,49,0.00,,---,0.09,VWS V14.01,2013-06-18 19:45:00,
2013-06-18 15:50:00,68.4,49.1,29.99,North,11,9.0,17.0,50,0.00,,---,0.09,VWS V14.01,2013-06-18 19:50:00,
2013-06-18 15:55:00,68.2,48.9,29.99,NE,52,9.0,17.0,50,0.00,,---,0.09,VWS V14.01,2013-06-18 19:55:00,
2013-06-18 16:00:00,68.3,49.5,29.99,NE,44,8.0,17.0,51,0.00,,---,0.09,VWS V14.01,2013-06-18 20:00:00,
2013-06-18 16:06:00,68.3,49.5,29.99,North,356,6.0,14.0,51,0.00,,---,0.09,VWS V14.01,2013-06-18 20:06:00,
2013-06-18 16:11:00,68.4,49.1,29.99,NE,50,7.0,14.0,50,0.00,,---,0.09,VWS V14.01,2013-06-18 20:11:00,
2013-06-18 16:16:00,68.4,47.4,29.99,NE,50,12.0,15.0,47,0.00,,---,0.09,VWS V14.01,2013-06-18 20:16:00,
2013-06-18 16:21:00,68.3,47.3,29.99,NNE,29,11.0,16.0,47,0.00,,---,0.09,VWS V14.01,2013-06-18 20:21:00,
2013-06-18 16:26:00,67.9,45.8,29.99,NNE,26,7.0,17.0,45,0.00,,---,0.09,VWS V14.01,2013-06-18 20:26:00,
2013-06-18 16:31:00,68.3,46.7,29.99,NE,43,12.0,17.0,46,0.00,,---,0.09,VWS V14.01,2013-06-18 20:31:00,
2013-06-18 16:36:00,68.1,47.1,29.99,NNE,29,4.0,17.0,47,0.00,,---,0.09,VWS V14.01,2013-06-18 20:36:00,
2013-06-18 16:41:00,68.3,47.3,29.99,NNE,20,10.0,17.0,47,0.00,,---,0.09,VWS V14.01,2013-06-18 20:41:00,
2013-06-18 16:46:00,68.0,45.9,29.99,North,4,9.0,17.0,45,0.00,,---,0.09,VWS V14.01,2013-06-18 20:46:00,
2013-06-18 16:51:00,68.1,47.7,29.99,NNW,340,4.0,17.0,48,0.00,,---,0.09,VWS V14.01,2013-06-18 20:51:00,
2013-06-18 16:56:00,68.1,46.6,29.99,NE,53,13.0,17.0,46,0.00,,---,0.09,VWS V14.01,2013-06-18 20:56:00,
2013-06-18 17:00:00,68.3,49.5,29.99,NE,44,8.0,17.0,51,0.00,,---,0.09,VWS V14.01,2013-06-18 21:00:00,
2013-06-18 17:01:00,68.0,44.7,29.99,NNE,18,9.0,11.0,43,0.00,,---,0.09,VWS V14.01,2013-06-18 21:01:00,
2013-06-18 17:06:00,67.9,46.4,29.99,NNE,23,11.0,15.0,46,0.00,,---,0.09,VWS V14.01,2013-06-18 21:06:00,
2013-06-18 17:11:00,68.0,44.7,29.99,NNE,19,7.0,15.0,43,0.00,,---,0.09,VWS V14.01,2013-06-18 21:11:00,
2013-06-18 17:17:00,67.9,44.0,29.98,NE,43,8.0,16.0,42,0.00,,---,0.09,VWS V14.01,2013-06-18 21:17:00,
2013-06-18 17:22:00,68.0,44.7,29.99,NE,49,10.0,16.0,43,0.00,,---,0.09,VWS V14.01,2013-06-18 21:22:00,
2013-06-18 17:27:00,67.7,45.0,29.99,NE,47,10.0,16.0,44,0.00,,---,0.09,VWS V14.01,2013-06-18 21:27:00,
2013-06-18 17:32:00,67.8,46.3,29.99,NE,47,13.0,16.0,46,0.00,,---,0.09,VWS V14.01,2013-06-18 21:32:00,
2013-06-18 17:37:00,67.8,45.1,29.99,NE,51,16.0,17.0,44,0.00,,---,0.09,VWS V14.01,2013-06-18 21:37:00,
2013-06-18 17:42:00,67.7,45.0,29.99,North,5,8.0,17.0,44,0.00,,---,0.09,VWS V14.01,2013-06-18 21:42:00,
2013-06-18 17:47:00,67.7,45.6,29.99,NNE,29,9.0,17.0,45,0.00,,---,0.09,VWS V14.01,2013-06-18 21:47:00,
2013-06-18 17:52:00,67.9,44.6,29.99,NE,47,11.0,17.0,43,0.00,,---,0.09,VWS V14.01,2013-06-18 21:52:00,
2013-06-18 17:57:00,67.5,44.2,29.99,NNE,29,8.0,17.0,43,0.00,,---,0.09,VWS V14.01,2013-06-18 21:57:00,
2013-06-18 18:00:00,68.1,46.0,29.99,NE,39,11.0,17.0,45,0.00,,---,0.09,VWS V14.01,2013-06-18 22:00:00,
2013-06-18 18:02:00,67.8,44.5,29.99,NNE,29,5.0,10.0,43,0.00,,---,0.09,VWS V14.01,2013-06-18 22:02:00,
2013-06-18 18:07:00,68.0,44.1,29.99,NNW,329,9.0,16.0,42,0.00,,---,0.09,VWS V14.01,2013-06-18 22:07:00,
2013-06-18 18:12:00,67.7,43.2,29.99,NE,43,9.0,16.0,41,0.00,,---,0.09,VWS V14.01,2013-06-18 22:12:00,
2013-06-18 18:17:00,67.3,44.1,29.99,NE,50,7.0,16.0,43,0.00,,---,0.09,VWS V14.01,2013-06-18 22:17:00,
2013-06-18 18:22:00,67.3,44.7,29.99,NE,39,7.0,16.0,44,0.00,,---,0.09,VWS V14.01,2013-06-18 22:22:00,
2013-06-18 18:27:00,67.4,45.3,30.00,North,4,7.0,16.0,45,0.00,,---,0.09,VWS V14.01,2013-06-18 22:27:00,
2013-06-18 18:33:00,67.4,44.2,30.00,NE,51,7.0,16.0,43,0.00,,---,0.09,VWS V14.01,2013-06-18 22:33:00,
2013-06-18 18:38:00,67.2,44.0,30.00,NNE,33,9.0,16.0,43,0.00,,---,0.09,VWS V14.01,2013-06-18 22:38:00,
2013-06-18 18:43:00,67.2,44.0,30.00,NNE,29,5.0,16.0,43,0.00,,---,0.09,VWS V14.01,2013-06-18 22:43:00,
2013-06-18 18:48:00,67.1,43.3,30.00,North,349,6.0,16.0,42,0.00,,---,0.09,VWS V14.01,2013-06-18 22:48:00,
2013-06-18 18:53:00,67.1,43.9,30.00,NNE,33,6.0,16.0,43,0.00,,---,0.09,VWS V14.01,2013-06-18 22:53:00,
2013-06-18 18:58:00,67.1,45.1,30.00,NNE,19,3.0,16.0,45,0.00,,---,0.09,VWS V14.01,2013-06-18 22:58:00,
2013-06-18 19:00:00,67.7,45.0,29.99,North,354,3.0,17.0,44,0.00,,---,0.09,VWS V14.01,2013-06-18 23:00:00,
2013-06-18 19:03:00,66.9,43.1,30.00,NE,40,10.0,12.0,42,0.00,,---,0.09,VWS V14.01,2013-06-18 23:03:00,
2013-06-18 19:08:00,66.8,43.6,30.00,NNW,329,4.0,13.0,43,0.00,,---,0.09,VWS V14.01,2013-06-18 23:08:00,
2013-06-18 19:13:00,66.9,43.7,30.00,NNE,18,6.0,13.0,43,0.00,,---,0.09,VWS V14.01,2013-06-18 23:13:00,
2013-06-18 19:18:00,66.7,44.1,30.01,ENE,58,6.0,14.0,44,0.00,,---,0.09,VWS V14.01,2013-06-18 23:18:00,
2013-06-18 19:23:00,66.5,43.9,30.01,NNE,23,11.0,14.0,44,0.00,,---,0.09,VWS V14.01,2013-06-18 23:23:00,
2013-06-18 19:28:00,66.3,43.2,30.01,NE,41,10.0,14.0,43,0.00,,---,0.09,VWS V14.01,2013-06-18 23:28:00,
2013-06-18 19:33:00,66.2,43.7,30.01,North,4,7.0,14.0,44,0.00,,---,0.09,VWS V14.01,2013-06-18 23:33:00,
2013-06-18 19:38:00,66.1,43.6,30.02,NNE,20,4.0,14.0,44,0.00,,---,0.09,VWS V14.01,2013-06-18 23:38:00,
2013-06-18 19:43:00,66.0,43.5,30.01,NE,44,10.0,14.0,44,0.00,,---,0.09,VWS V14.01,2013-06-18 23:43:00,
2013-06-18 19:49:00,66.0,44.1,30.02,ENE,61,4.0,14.0,45,0.00,,---,0.09,VWS V14.01,2013-06-18 23:49:00,
2013-06-18 19:54:00,65.8,42.7,30.02,North,356,4.0,14.0,43,0.00,,---,0.09,VWS V14.01,2013-06-18 23:54:00,
2013-06-18 19:59:00,65.8,43.3,30.02,ENE,57,5.0,14.0,44,0.00,,---,0.09,VWS V14.01,2013-06-18 23:59:00,
2013-06-18 20:00:00,67.0,43.2,30.00,NNE,22,8.0,16.0,42,0.00,,---,0.09,VWS V14.01,2013-06-19 00:00:00,
2013-06-18 20:04:00,65.6,43.1,30.02,NE,51,9.0,11.0,44,0.00,,---,0.09,VWS V14.01,2013-06-19 00:04:00,
2013-06-18 20:09:00,65.3,42.2,30.02,NNE,23,9.0,15.0,43,0.00,,---,0.09,VWS V14.01,2013-06-19 00:09:00,
2013-06-18 20:14:00,65.1,42.7,30.02,ENE,70,5.0,15.0,44,0.00,,---,0.09,VWS V14.01,2013-06-19 00:14:00,
2013-06-18 20:19:00,64.9,42.5,30.02,NE,48,5.0,15.0,44,0.00,,---,0.09,VWS V14.01,2013-06-19 00:19:00,
2013-06-18 20:24:00,64.7,41.7,30.02,NNE,33,3.0,15.0,43,0.00,,---,0.09,VWS V14.01,2013-06-19 00:24:00,
2013-06-18 20:29:00,64.5,41.5,30.02,NE,37,3.0,15.0,43,0.00,,---,0.09,VWS V14.01,2013-06-19 00:29:00,
2013-06-18 20:34:00,64.3,41.9,30.02,NNE,13,4.0,15.0,44,0.00,,---,0.09,VWS V14.01,2013-06-19 00:34:00,
2013-06-18 20:39:00,64.1,41.8,30.02,NE,50,11.0,15.0,44,0.00,,---,0.09,VWS V14.01,2013-06-19 00:39:00,
2013-06-18 20:45:00,63.8,42.1,30.02,NE,47,3.0,15.0,45,0.00,,---,0.09,VWS V14.01,2013-06-19 00:45:00,
2013-06-18 20:50:00,63.3,42.2,30.02,North,10,5.0,15.0,46,0.00,,---,0.09,VWS V14.01,2013-06-19 00:50:00,
2013-06-18 20:55:00,62.7,42.2,30.03,North,10,9.0,15.0,47,0.00,,---,0.09,VWS V14.01,2013-06-19 00:55:00,
2013-06-18 21:00:00,62.3,42.4,30.03,NNE,19,4.0,15.0,48,0.00,,---,0.09,VWS V14.01,2013-06-19 01:00:00,
2013-06-18 21:05:00,61.8,42.5,30.03,NNE,32,3.0,7.0,49,0.00,,---,0.09,VWS V14.01,2013-06-19 01:05:00,
2013-06-18 21:10:00,61.5,42.7,30.03,NNE,31,4.0,7.0,50,0.00,,---,0.09,VWS V14.01,2013-06-19 01:10:00,
2013-06-18 21:15:00,61.1,42.8,30.03,NE,34,2.0,7.0,51,0.00,,---,0.09,VWS V14.01,2013-06-19 01:15:00,
2013-06-18 21:20:00,60.8,42.6,30.03,NE,48,5.0,7.0,51,0.00,,---,0.09,VWS V14.01,2013-06-19 01:20:00,
2013-06-18 21:25:00,60.6,42.9,30.03,NE,41,4.0,7.0,52,0.00,,---,0.09,VWS V14.01,2013-06-19 01:25:00,
2013-06-18 21:30:00,60.4,42.7,30.03,NE,34,2.0,8.0,52,0.00,,---,0.09,VWS V14.01,2013-06-19 01:30:00,
2013-06-18 21:35:00,60.1,42.9,30.03,NE,36,5.0,8.0,53,0.00,,---,0.09,VWS V14.01,2013-06-19 01:35:00,
2013-06-18 21:40:00,59.8,42.7,30.03,NE,47,2.0,8.0,53,0.00,,---,0.09,VWS V14.01,2013-06-19 01:40:00,
2013-06-18 21:45:00,59.5,42.9,30.03,NE,40,1.0,8.0,54,0.00,,---,0.09,VWS V14.01,2013-06-19 01:45:00,
2013-06-18 21:50:00,59.2,42.6,30.04,NE,34,1.0,8.0,54,0.00,,---,0.09,VWS V14.01,2013-06-19 01:50:00,
2013-06-18 21:55:00,59.0,41.9,30.04,NNE,29,3.0,8.0,53,0.00,,---,0.09,VWS V14.01,2013-06-19 01:55:00,
2013-06-18 22:00:00,62.2,42.3,30.03,NE,44,4.0,15.0,48,0.00,,---,0.09,VWS V14.01,2013-06-19 02:00:00,
2013-06-18 22:01:00,58.9,42.3,30.04,NE,53,1.0,8.0,54,0.00,,---,0.09,VWS V14.01,2013-06-19 02:01:00,
2013-06-18 22:06:00,58.6,42.5,30.05,NE,51,1.0,2.0,55,0.00,,---,0.09,VWS V14.01,2013-06-19 02:06:00,
2013-06-18 22:11:00,58.3,42.2,30.05,ENE,75,1.0,2.0,55,0.00,,---,0.09,VWS V14.01,2013-06-19 02:11:00,
2013-06-18 22:16:00,57.9,42.3,30.05,ENE,73,1.0,2.0,56,0.00,,---,0.09,VWS V14.01,2013-06-19 02:16:00,
2013-06-18 22:21:00,57.6,43.0,30.06,NE,51,0.0,3.0,58,0.00,,---,0.09,VWS V14.01,2013-06-19 02:21:00,
2013-06-18 22:26:00,57.2,42.6,30.06,ENE,73,0.0,3.0,58,0.00,,---,0.09,VWS V14.01,2013-06-19 02:26:00,
2013-06-18 22:31:00,56.8,43.5,30.06,ENE,74,0.0,3.0,61,0.00,,---,0.09,VWS V14.01,2013-06-19 02:31:00,
2013-06-18 22:36:00,56.2,44.2,30.06,ENE,74,0.0,3.0,64,0.00,,---,0.09,VWS V14.01,2013-06-19 02:36:00,
2013-06-18 22:41:00,55.4,44.2,30.06,ENE,73,0.0,3.0,66,0.00,,---,0.09,VWS V14.01,2013-06-19 02:41:00,
2013-06-18 22:46:00,54.7,44.4,30.06,ENE,73,0.0,3.0,68,0.00,,---,0.09,VWS V14.01,2013-06-19 02:46:00,
2013-06-18 22:51:00,53.9,43.2,30.06,ENE,74,0.0,3.0,67,0.00,,---,0.09,VWS V14.01,2013-06-19 02:51:00,
2013-06-18 22:56:00,53.3,43.0,30.06,ENE,73,0.0,3.0,68,0.00,,---,0.09,VWS V14.01,2013-06-19 02:56:00,
2013-06-18 23:00:00,58.9,42.3,30.04,NE,53,1.0,8.0,54,0.00,,---,0.09,VWS V14.01,2013-06-19 03:00:00,
2013-06-18 23:02:00,52.7,42.8,30.06,ENE,73,0.0,0.0,69,0.00,,---,0.09,VWS V14.01,2013-06-19 03:02:00,
2013-06-18 23:07:00,52.2,43.1,30.06,ENE,74,0.0,0.0,71,0.00,,---,0.09,VWS V14.01,2013-06-19 03:07:00,
2013-06-18 23:12:00,51.9,43.5,30.06,ENE,73,0.0,0.0,73,0.00,,---,0.09,VWS V14.01,2013-06-19 03:12:00,
2013-06-18 23:17:00,51.8,43.4,30.06,ENE,74,0.0,0.0,73,0.00,,---,0.09,VWS V14.01,2013-06-19 03:17:00,
2013-06-18 23:22:00,51.7,43.0,30.06,ENE,73,0.0,0.0,72,0.00,,---,0.09,VWS V14.01,2013-06-19 03:22:00,
2013-06-18 23:27:00,51.5,43.1,30.06,ENE,73,0.0,0.0,73,0.00,,---,0.09,VWS V14.01,2013-06-19 03:27:00,
2013-06-18 23:32:00,51.3,43.3,30.06,ENE,74,0.0,0.0,74,0.00,,---,0.09,VWS V14.01,2013-06-19 03:32:00,
2013-06-18 23:37:00,51.0,43.4,30.06,ENE,73,0.0,0.0,75,0.00,,---,0.09,VWS V14.01,2013-06-19 03:37:00,
2013-06-18 23:42:00,50.7,43.4,30.06,ENE,73,0.0,0.0,76,0.00,,---,0.09,VWS V14.01,2013-06-19 03:42:00,
2013-06-18 23:47:00,50.6,43.7,30.06,ENE,73,0.0,0.0,77,0.00,,---,0.09,VWS V14.01,2013-06-19 03:47:00,
2013-06-18 23:52:00,50.4,43.5,30.06,ENE,74,0.0,0.0,77,0.00,,---,0.09,VWS V14.01,2013-06-19 03:52:00,
2013-06-18 23:57:00,50.0,43.4,30.06,ENE,74,0.0,0.0,78,0.00,,---,0.09,VWS V14.01,2013-06-19 03:57:00,